Flag for U.S.A. Weather past 2 weeks in Rockford, Illinois, U.S.A.

Now
73 °F

Sunny.


Feels Like: 72 °F
Forecast: 69 / 89 °F
Wind: 5 mph from Southwest

Location: Greater Rockford Airport

Current Time: Sep 3, 2015 at 8:34:53 AM

Latest Report: Sep 3, 2015 at 7:54 AM


Visibility: 9 mi

Pressure: 29.95 "Hg

Humidity: 84%

Dew point: 68 °F

Location of RockfordLocation

Historic Weather in Rockford — Graph

°F

Rockford temperature yesterday

Maximum temperature yesterday: 88 °F (at 1:54 PM)
Minimum temperature yesterday: 69 °F (at 4:54 AM)
Average temperature yesterday: 78 °F

Past Weeks' High & Low Weather Summary

 TemperatureHumidityPressure
High89 °F (Sep 1, 2:54 PM)93% (Aug 29, 4:54 AM)30.24 "Hg (Aug 29, 4:54 AM)
Low51 °F (Aug 27, 6:54 AM)39% (Aug 20, 3:54 PM)29.63 "Hg (Aug 19, 6:54 AM)
Average68 °F72%30.01 "Hg
* Reported Aug 19 6:54 AM — Sep 3 6:54 AM, Rockford, Weather by CustomWeather, © 2015

Note: Actual official high and low records may vary slightly from our data, if they occured in-between our weather recording intervals... More about our weather records

Advertising

Rockford weather history for previous 24 hours

 ConditionsComfort  
Time TempWeatherWind HumidityBarometerVisibility
6:54 AM
Thu, Sep 3
71 °FFog.6 mph87%29.95 "Hg6 mi
5:54 AM70 °FPassing clouds.6 mph90%29.93 "Hg8 mi
4:54 AM71 °FPassing clouds.7 mph87%29.94 "Hg8 mi
3:54 AM71 °FPassing clouds.6 mph87%29.94 "Hg10 mi
2:54 AM73 °FPassing clouds.3 mph84%29.94 "Hg10 mi
1:54 AM74 °FOvercast.3 mph85%29.95 "Hg10 mi
12:54 AM74 °FPassing clouds.5 mph85%29.95 "Hg10 mi
11:54 PM
Wed, Sep 2
75 °FPassing clouds.5 mph82%29.96 "Hg10 mi
10:54 PM75 °FPassing clouds.5 mph85%29.96 "Hg10 mi
9:54 PM75 °FPassing clouds.3 mph85%29.95 "Hg10 mi
8:54 PM76 °FPassing clouds.6 mph82%29.94 "Hg10 mi
7:54 PM78 °FPassing clouds.6 mph76%29.93 "Hg10 mi
6:54 PM81 °FScattered clouds.3 mph69%29.95 "Hg10 mi
5:54 PM84 °FPartly sunny.7 mph61%29.95 "Hg10 mi
4:54 PM84 °FPartly sunny.8 mph63%29.96 "Hg10 mi
3:54 PM86 °FPartly sunny.8 mph57%29.96 "Hg10 mi
2:54 PM88 °FMore clouds than sun.13 mph52%29.98 "Hg10 mi
1:54 PM88 °FPartly sunny.12 mph55%30.00 "Hg10 mi
12:54 PM87 °FBroken clouds.12 mph57%30.01 "Hg10 mi
11:54 AM86 °FScattered clouds.8 mph57%30.01 "Hg10 mi
10:54 AM84 °FPartly sunny.9 mph63%30.03 "Hg10 mi
9:54 AM80 °FScattered clouds.7 mph71%30.05 "Hg10 mi
8:54 AM75 °FScattered clouds.5 mph85%30.05 "Hg7 mi
Weather by CustomWeather, © 2015

See weather overviewHow to use our weather pages